COSMOS 2251 DEB, 34409

Orbit data source: Space-Track

COSMOS 2251 DEB, 34409 is space debris in LEO originally from a launch on Wed, 16 Jun 1993 UTC launched from the Plesetsk Missile And Space Complex (PKMTR). The debris from Iridium 33, an American commercial communications satellite, has been tracked extensively since its accidental collision with the defunct Russian satellite Cosmos 2251 in 2009. This event, occurring at high speed in low Earth orbit (LEO), generated thousands of pieces of space debris, significantly increasing the risk of further collisions. The Iridium 33 debris cloud has impacted space traffic management and orbital debris mitigation strategies, making it a subject of ongoing study in space situational awareness.

Loading next visibility...
Identifier
34409, 1993-036RA
Orbit
LEO
Country
Flag of CISCIS
Related business
Manufacturer
Unknown
Mission
Spacecraft
Bus & Motor
Unknown
Mass
Unknown
Launch date (UTC)
1993-06-16 (33 years ago)
Launch vehicle
Unknown
Launch site
Plesetsk Missile And Space Complex (PKMTR)
Object type
Payload
Rocket body
Debris
Shape & HBR
Unknown shape, 0.1 m
Radar Cross Section
Small (<0.1 m²)

Expand to show TLE details & history
Last TLE update: 6 hours ago

TLE from 6 hours ago
0 COSMOS 2251 DEB
1 34409U 93036RA  26120.22269255  .00000880  00000-0  18855-3 0  9991
2 34409  74.0645  43.7573 0078795  83.2499  66.3123 14.58335118912112
Epoch: 2026-04-30T05:20Z
TLE epoch observation values (Epoch: 2026-04-30T05:20:40.636Z)
Latitude
28.41614°
Longitude
-83.42319°
Altitude
679.733 km
Speed
7.531 km/s
True Right ascension
14h 19m 40s
True Declination
28° 16' 15"
Sunlit
Object was in full shadow at epoch
Visualization orbit readout
Latitude
Unknown
Longitude
Unknown
Altitude
Unknown
Speed
Unknown
Apparent Right ascension
Unknown
Apparent Declination
Unknown
Sunlit
N/A
Visualization observer readout
Local Sidereal Time
18:28:37
Azimuth
Unknown
Elevation
Unknown
Doppler factor
Unknown
Orbital elements
Apogee altitude
751.893 km
Perigee altitude
640.41 km
Semi-major axis
7,074.289 km
Eccentricity
0.00788
Inclination
74.0645°
RAAN
43.7573°
Arg. of periapsis
83.2499°
True anomaly
67.14241°
Mean anomaly
66.3123°
Eccentric anomaly
66.72703°
Mean motion
3.6477 °/min
Orbital period
98.69 mins
BSTAR
0.00018855
Loading maneuver chart data...
Computing Atmospheric mass density...

Documentation

Showing up to 5 results
|